Starlink 37073

operational
NORAD ID: 68151 Int'l Des: 2026-049 Owner: SPXS Country: US Constellation: starlink
LEOCIRCULARRETROGRADE

About Starlink 37073

Description loading...

Live Position

Loading 3D Globe...

Upcoming Passes

Altitude History

Altitude vs Time

uPlot chart will show altitude changes over time

Two-Line Element Set

1 68151C 26049K 26072.93520833 .00493030 00000+0 57426-3 0 729
2 68151 97.2821 91.9370 0010063 252.6752 236.7750 16.08184746 16
Epoch: Mar 13, 2026 • Age: 70 hours

Current Status

Altitude 263.8 km
Velocity 7.75 km/s
Sub-Earth Point 62.17°N, 62.25°W
Launch Date Mar 13, 2026
Age 2 days
Type internet

Technical Details

Classification Payload
Mass 575.00 kg
Dry Mass 530.00 kg
Total Mass 575.00 kg
Length 0.30 m
Diameter 4.10 m
Span 29.00 m
Shape Box + pan
Manufacturer SPXS
Bus Type Starlink V2MO
Phase Status In Orbit
Owner/State SPXS/US

Large Constellations

Loading constellations...